Погода в Малом Карлино

Россия / Санкт-Петербург и Ленинградская область     59°43′26″N   30°16′00″E
темп.,
°C
ветер,
м/с
пор.,
м/с
влажн.,
%
обл.,
%
осадки,
мм/ч
давл.,
гПа
погр.,
м
19 сентября, вс
вс1900:00+4всв3983100 0.0 1027279
03:00+3всв4883100 0.0 1028248
06:00+2всв4985100 0.0 1027258
09:00+4в51073100 0.0 1027452
12:00+8в6854100 0.0 1027967
15:00+10в6849100 0.0 10271264
18:00+8всв5958100 0.0 1026726
21:00+4всв4127681 0.0 1027287
20 сентября, пн
пн2000:00+5всв51274100 0.0 1027431
03:00+5всв51274100 0.0 1027493
06:00+4всв61276100 0.0 1027522
09:00+4всв71269100 0.0 1027649
12:00+7всв71056100 0.0 1027916
15:00+8всв71052100 0.0 10261133
18:00+7всв61057100 0.0 10261044
21:00+6всв51163100 0.0 1025648
21 сентября, вт
вт2100:00+5всв51168100 0.0 1025560
03:00+4всв41074100 0.0 1024438
06:00+4всв4977100 0.0 1023402
09:00+5всв487197 0.0 1022510
12:00+8всв566185 0.0 1021930
15:00+6всв4677100 0.0 1021944
18:00+4всв4896100 0.6 1021803
21:00+5всв4897100 1.6 1021795
22 сентября, ср
ср2200:00+5всв4696100 0.6 1021760
03:00+5св3796100 0.6 1021515
06:00+6св3895100 0.0 1021436
09:00+6св3893100 0.1 1022469
12:00+9св467978 0.0 1022632
15:00+10св5773100 0.0 1021747
18:00+8всв498174 0.0 1021584
21:00+7всв2884100 0.0 1020305
23 сентября, чт
чт2300:00+7в3780100 0.0 1019409
03:00+6вюв368399 0.0 1018393
06:00+6юв3689100 0.0 1017356
09:00+6юв4687100 0.0 1016470
12:00+9ююв467796 0.0 1015767
15:00+10ююв476976 0.1 10131067
18:00+9ююв4878100 0.3 1011659
21:00+8юв498789 0.3 1010494